Tracking 28799 objects as of 18-Apr-2024
HD Live streaming from Space Station
objects crossing your sky now

COSMOS 2251 DEB

Track COSMOS 2251 DEB now!
10-day predictions


NORAD ID: 33844
Int'l Code: 1993-036CM
Perigee: 757.7 km
Apogee: 833.3 km
Inclination: 74.1 °
Period: 100.6 minutes
Semi major axis: 7166 km
RCS: 0.057 m2 (small)
Launch date: June 16, 1993
Source: Commonwealth of Independent States (former USSR) (CIS)
Launch site: PLESETSK MISSILE AND SPACE COMPLEX (PKMTR)

Note: This is SATELLITE DEBRIS
Your satellite tracking list
Your tracking list is empty




NASA's NSSDC Master Catalog

Two Line Element Set (TLE):
1 33844U 93036CM  24108.92746363  .00003529  00000-0  13302-2 0  9998
2 33844  74.0675  73.0359 0052795 247.6691 171.4717 14.31004773790793
Source of the keplerian elements: AFSPC